Header for Extended Forecast Station List Page

Search by: ID | Name | Date | Parm | Value | Avg | % Avg
Sort by: ID | Name | Date | Parm | Value | Avg | % Avg

Enter search or view all records.

Click on id for station plot
#IDNameDateParmValueAvg% Avg
0LYDM8KOOTENAI-LIBBY DAM08-13-2018INFLOW (KAF)980135872
1LEOI1KOOTENAI-AT LEONIA08-13-2018DISCHARGE (KAF)1805195193
2BFEI1KOOTENAI-AT BONNERS FERRY08-13-2018STAGE (FT)MMM
3FCFM8NF FLATHEAD-NEAR COLUMBIA FALLS08-13-2018DISCHARGE (KAF)18025371
4WGCM8MF FLATHEAD-NEAR WEST GLACIER08-13-2018DISCHARGE (KAF)15420974
5HHWM8SF FLATHEAD-HUNGRY HORSE DAM08-13-2018INFLOW (KAF)17523375
6CFMM8FLATHEAD-AT COLUMBIA FALLS08-13-2018DISCHARGE (KAF)932113782
7DLGM8CLARK FORK-AT DEER LODGE08-13-2018DISCHARGE (KAF)8754162
8DRMM8CLARK FORK-NR DRUMMOND08-13-2018DISCHARGE (KAF)185MM
9RCCM8ROCK CREEK-NEAR CLINTON08-13-2018DISCHARGE (KAF)7060117
10BONM8BLACKFOOT-NEAR BONNER08-13-2018DISCHARGE (KAF)179158113
11ABOM8CLARK FORK-ABOVE MISSOULA08-13-2018DISCHARGE (KAF)447369121
12BITM8BITTERROOT-NEAR MISSOULA08-13-2018DISCHARGE (KAF)19322785
13BELM8CLARK FORK-BELOW MISSOULA08-13-2018DISCHARGE (KAF)646603107
14STRM8ST. REGIS-NEAR ST. REGIS08-13-2018DISCHARGE (KAF)253183
15SRGM8CLARK FORK-AT ST REGIS08-13-2018DISCHARGE (KAF)789785100
16KERM8FLATHEAD-KERR DAM08-13-2018INFLOW (KAF)1089136780
17NOXM8CLARK FORK-NOXON RAPIDS DAM08-13-2018INFLOW (KAF)2381296280
18CABI1CLARK FORK-CABINET GORGE DAM08-13-2018INFLOW (KAF)2620312384
19PRTI1PRIEST-NEAR PRIEST RIVER08-13-2018DISCHARGE (KAF)7618441
20ALFW1PEND OREILLE-ALBENI FALLS DAM08-13-2018INFLOW (KAF)2710348978
21HOPI1PEND OREILLE-PEND OREILLE LAKE NR HOPE08-13-2018LAKE ELEVATION (FT)MMM
22COEI1COEUR D ALENE-COEUR D ALENE LAKE08-13-2018INFLOW (KAF)22230274
23SPOW1SPOKANE-AT SPOKANE08-13-2018DISCHARGE (KAF)449MM
24LLKW1SPOKANE-AT LONGLAKE08-13-2018INFLOW (KAF)61269288
25SATI1ST MARIES-NEAR SANTA08-13-2018DISCHARGE (KAF)161983
26SJMI1ST JOE-AT ST MARIES08-13-2018STAGE (FT)MMM
27CIBW1COLUMBIA-AT INTL BOUNDARY08-13-2018DISCHARGE (KAF)16113MM
28LAUW1KETTLE-AT LAURIER08-13-2018DISCHARGE (KAF)9013169
29GCDW1COLUMBIA-GRAND COULEE DAM08-13-2018INFLOW (KAF)168601832492
30CHJW1COLUMBIA-CHIEF JOSEPH DAM08-13-2018INFLOW (KAF)164101921685
31TONW1OKANOGAN-NEAR TONASKET08-13-2018DISCHARGE (KAF)25828491
32PATW1METHOW-NEAR PATEROS08-13-2018DISCHARGE (KAF)9510888
33WELW1COLUMBIA-WELLS DAM08-13-2018INFLOW (KAF)167651948486
34CHDW1CHELAN-LAKE CHELAN DAM08-13-2018INFLOW (KAF)14818480
35RRHW1COLUMBIA-ROCKY REACH DAM08-13-2018INFLOW (KAF)171411993086
36ARDW1ENTIAT-NEAR ARDENVOIR08-13-2018DISCHARGE (KAF)202582
37PESW1WENATCHEE-AT PESHASTIN08-13-2018DISCHARGE (KAF)20725183
38WANW1COLUMBIA-WANAPUM DAM08-13-2018INFLOW (KAF)173501918690
39PRWW1COLUMBIA-PRIEST RAPIDS DAM08-13-2018INFLOW (KAF)173501949189
40KEDW1YAKIMA-KEECHELUS LAKE08-13-2018INFLOW (KAF)4535129
41KADW1KACHESS-KACHESS DAM08-13-2018INFLOW (KAF)3024123
42EASW1YAKIMA-AT EASTON08-13-2018DISCHARGE (KAF)276442
43CLUW1CLE ELUM-CLE ELUM LAKE08-13-2018INFLOW (KAF)697790
44TNAW1TEANAWAY-BELOW FORKS08-13-2018DISCHARGE (KAF)101569
45UMTW1YAKIMA-AT UMTANUM08-13-2018DISCHARGE (KAF)424408104
46BUDW1BUMPING-BUMPING LAKE DAM08-13-2018INFLOW (KAF)2824114
47CLFW1NACHES-NEAR CLIFFDEL08-13-2018DISCHARGE (KAF)718089
48RILW1TIETON-RIMROCK LAKE NEAR RIMROCK08-13-2018INFLOW (KAF)6461104
49NACW1NACHES-NEAR NACHES08-13-2018DISCHARGE (KAF)14793158
50PARW1YAKIMA-NEAR PARKER08-13-2018DISCHARGE (KAF)16222473
51KIOW1YAKIMA-AT KIONA08-13-2018DISCHARGE (KAF)41851581
52IPDI1HENRYS FORK-ISLAND PARK DAM08-13-2018INFLOW (KAF)151134113
53CHEI1FALL RIVER-NEAR CHESTER08-13-2018DISCHARGE (KAF)10493112
54ANTI1HENRYS FORK-AT ST. ANTHONY08-13-2018DISCHARGE (KAF)476323147
55TEAI1TETON-NEAR ST. ANTHONY08-13-2018DISCHARGE (KAF)147143103
56REXI1HENRYS FORK-AT REXBURG08-13-2018DISCHARGE (KAF)569396144
57JLKW4SNAKE-JACKSON LAKE AT DAM08-13-2018INFLOW (KAF)148128116
58JKSW4SNAKE-NEAR JACKSON08-13-2018DISCHARGE (KAF)684589116
59ALPW4SNAKE-NEAR ALPINE08-13-2018DISCHARGE (KAF)819706116
60PLDI1SF SNAKE-PALISADES DAM08-13-2018INFLOW (KAF)11121012110
61HEII1SNAKE-NEAR HEISE08-13-2018DISCHARGE (KAF)15481187130
62RIDI1WILLOW CREEK-RIRIE DAM08-13-2018INFLOW (KAF)5678
63SIFI1SNAKE-AB EAGLE ROCK NR IDAHO FALLS08-13-2018DISCHARGE (KAF)15731006156
64SHYI1SNAKE-NEAR SHELLEY08-13-2018DISCHARGE (KAF)1525852179
65SNAI1SNAKE-AT BLACKFOOT08-13-2018DISCHARGE (KAF)1240603206
66BFTI1SNAKE-NEAR BLACKFOOT08-13-2018DISCHARGE (KAF)1248628199
67PIHI1PORTNEUF-AT POCATELLO08-13-2018DISCHARGE (KAF)4340109
68AFRI1SNAKE-AMERICAN FALLS RESERVOIR08-13-2018INFLOW (KAF)18851291146
69MILI1SNAKE-AT MILNER08-13-2018DISCHARGE (KAF)5522425
70HOTI1BRUNEAU-NEAR HOT SPRINGS08-13-2018DISCHARGE (KAF)172278
71SWAI1SNAKE-BELOW SWAN FALLS08-13-2018DISCHARGE (KAF)1915222986
72HWRI1BIG LOST-AT HOWELL RANCH NEAR CHILLY08-13-2018DISCHARGE (KAF)253084
73MACI1BIG LOST-MACKAY RESERVOIR NEAR MACKAY08-13-2018INFLOW (KAF)3817226
74HALI1BIG WOOD-AT HAILEY08-13-2018DISCHARGE (KAF)374877
75MAGI1BIG WOOD-MAGIC DAM08-13-2018INFLOW (KAF)162857
76LWRI1LITTLE WOOD-LITTLE WOOD DAM08-13-2018INFLOW (KAF)1715115
77OWYO3OWYHEE-OWYHEE DAM08-13-2018INFLOW (KAF)475585
78ARAI1SF BOISE-ANDERSON RANCH DAM08-13-2018INFLOW (KAF)686899
79LUCI1BOISE-LUCKY PEAK DAM08-13-2018INFLOW (KAF)303MM
80BIGI1BOISE-AT GLENWOOD BRIDGE08-13-2018DISCHARGE (KAF)108102106
81PARI1BOISE-NEAR PARMA08-13-2018DISCHARGE (KAF)20822493
82WRMO3MALHEUR-WARM SPRINGS DAM08-13-2018INFLOW (KAF)447634
83BERO3MALHEUR-AGENCY VALLEY DAM08-13-2018INFLOW (KAF)8985
84BULO3BULLY CREEK-BULLY CREEK DAM08-13-2018INFLOW (KAF)10197
85VALO3MALHEUR-NEAR VALE08-13-2018DISCHARGE (KAF)3327122
86CSDI1NF PAYETTE-CASCADE DAM08-13-2018INFLOW (KAF)8275110
87DEDI1DEADWOOD-NEAR LOWMAN08-13-2018INFLOW (KAF)171892
88EMMI1PAYETTE-NEAR EMMETT08-13-2018DISCHARGE (KAF)28537975
89WSRI1WEISER-NEAR WEISER08-13-2018DISCHARGE (KAF)445089
90WEII1SNAKE-AT WEISER08-13-2018DISCHARGE (KAF)2827323887
91BRNI1SNAKE-BROWNLEE DAM08-13-2018INFLOW (KAF)2981330490
92WHBI1SALMON-AT WHITEBIRD08-13-2018DISCHARGE (KAF)1131113799
93TRYO3GRANDE RONDE-TROY08-13-2018DISCHARGE (KAF)13521065
94ANAW1SNAKE-NEAR ANATONE08-13-2018DISCHARGE (KAF)4375482291
95ORFI1CLEARWATER-AT OROFINO08-13-2018DISCHARGE (KAF)42550384
96DWRI1NF CLEARWATER-DWORSHAK DAM08-13-2018INFLOW (KAF)32137885
97SPDI1CLEARWATER-AT SPALDING08-13-2018DISCHARGE (KAF)12891154112
98LGDW1SNAKE-LOWER GRANITE DAM08-13-2018INFLOW (KAF)5664608993
99LGSW1SNAKE-LITTLE GOOSE DAM08-13-2018INFLOW (KAF)5664612193
100LMNW1SNAKE-LOWER MONUMENTAL DAM08-13-2018INFLOW (KAF)5678612793
101IHDW1SNAKE-ICE HARBOR DAM08-13-2018INFLOW (KAF)5681604594
102TCHW1WALLA WALLA-NEAR TOUCHET08-13-2018DISCHARGE (KAF)152756
103MCDW1COLUMBIA-MCNARY DAM08-13-2018INFLOW (KAF)234682657788
104GIBO3UMATILLA-NEAR GIBBON08-13-2018DISCHARGE (KAF)121675
105PDTO3UMATILLA-AT PENDLETON08-13-2018DISCHARGE (KAF)162367
106MYKO3MCKAY CREEK-NEAR PILOT ROCK08-13-2018DISCHARGE (KAF)33105
107UMAO3UMATILLA-NEAR UMATILLA08-13-2018DISCHARGE (KAF)5122231
108MONO3NF JOHN DAY-AT MONUMENT08-13-2018DISCHARGE (KAF)284168
109SERO3JOHN DAY-AT SERVICE CK08-13-2018DISCHARGE (KAF)497863
110JDAO3COLUMBIA-JOHN DAY DAM08-13-2018INFLOW (KAF)239932707189
111MODO3DESCHUTES-AT MOODY NR BIGGS08-13-2018DISCHARGE (KAF)1029114890
112TDAO3COLUMBIA-THE DALLES DAM08-13-2018INFLOW (KAF)245842854286
113PITW1KLICKITAT-NEAR PITT08-13-2018DISCHARGE (KAF)18719496
114HODO3HOOD-NEAR TUCKER BRIDGE08-13-2018DISCHARGE (KAF)126124102
115UNDW1WHITE SALMON-NEAR UNDERWOOD08-13-2018DISCHARGE (KAF)167163102
116BONO3COLUMBIA-BONNEVILLE DAM08-13-2018INFLOW (KAF)250622979384